Regional Weather Roundup
Issued by NWS

Home | Current Version | Previous Version | Graphics & Text | Print | Product List | Glossary On
Versions: 1 2 3 4 5 6 7 8 9 10 11 12 13 14 15 16 17 18 19 20 21 22 23 24 25 26 27 28 29 30 31 32 33 34 35 36 37 38 39 40 41 42 43 44 45 46 47 48 49 50
624
ASUS45 KBOI 141810
RWRID

IDAHO REGIONAL WEATHER ROUNDUP
NATIONAL WEATHER SERVICE BOISE ID
1100 AM MST SUN FEB 14 2016

NOTE: "FAIR" INDICATES FEW OR NO CLOUDS BELOW 12000 FEET
WITH NO SIGNIFICANT WEATHER AND/OR OBSTRUCTIONS TO VISIBILITY

IDZ012-014-141900-
SOUTHWEST IDAHO


CITY           SKY/WX    TMP DP  RH WIND       PRES   REMARKS
BOISE          LGT RAIN  43  39  86 CALM      30.26S
CALDWELL       CLOUDY    44  40  85 NE6       30.27S
MOUNTAIN HOME  CLOUDY    42  39  89 VRB2      30.25S
$$

IDZ016-017-141900-
SOUTHCENTRAL IDAHO


CITY           SKY/WX    TMP DP  RH WIND       PRES   REMARKS
BURLEY         CLOUDY    40  37  89 W14G20    30.20F WCI  32
JEROME         CLOUDY    38  36  92 W17       30.23R WCI  28
TWIN FALLS     CLOUDY    42  38  85 SW15      30.23S
$$

IDZ019>023-141900-
SOUTHEAST IDAHO


CITY           SKY/WX    TMP DP  RH WIND       PRES   REMARKS
IDAHO FALLS    FOG       33  32  96 SW17      30.16R VSB 3/4 WCI  22
POCATELLO      CLOUDY    37  34  89 SW24G33   30.19S WCI  26
REXBURG        CLOUDY    30  29  96 SW14      30.13F FOG     WCI  19
$$

IDZ006-010-011-018-031-032-141900-
CENTRAL IDAHO MOUNTAINS


CITY           SKY/WX    TMP DP  RH WIND       PRES   REMARKS
MCCALL         LGT SNOW  32  31  96 CALM      30.19R VSB 1
HAILEY         PTSUNNY   32  27  80 NW6       30.19R WCI  26
STANLEY          N/A     32  28  85 CALM      30.18R
SALMON         PTSUNNY   30  27  86 CALM      30.11S
CHALLIS        CLOUDY    36  27  69 SE6       30.12F WCI  31
$$

IDZ002-004-006-007-026-141900-
NORTHERN IDAHO


CITY           SKY/WX    TMP DP  RH WIND       PRES   REMARKS
LEWISTON       CLOUDY    45  40  82 S3        30.15R
LOWELL           N/A     41  39  93 CALM      30.18S
COEUR D`ALENE  CLOUDY    43  37  81 S7        30.10R
MULLAN PASS    SNOW      30  29  96 VRB6G17   30.03R VSB 1/4 WCI  24
$$




USA.gov is the U.S. government's official web portal to all federal, state and local government web resources and services.